Date,TemperatureHighF,TemperatureAvgF,TemperatureLowF,DewpointHighF,DewpointAvgF,DewpointLowF,HumidityHigh,HumidityAvg,HumidityLow,PressureMaxIn,PressureMinIn,WindSpeedMaxMPH,WindSpeedAvgMPH,GustSpeedMaxMPH,PrecipitationSumIn
2013-1-1,48,39,34,38,34,31,100,84,61,30.21,30.14,10,2,22,0.00
2013-1-2,57,40,31,38,33,30,98,78,45,30.19,30.08,3,0,7,0.00
2013-1-3,56,41,32,42,36,30,98,84,58,30.22,30.08,5,1,8,0.00
2013-1-4,59,42,35,42,37,34,100,84,47,30.24,30.13,5,0,7,0.00
2013-1-5,53,44,37,47,42,36,100,93,73,30.21,30.01,5,1,11,0.20
2013-1-6,46,42,37,45,42,37,100,99,95,30.13,30.01,6,1,14,0.20
2013-1-7,57,44,36,47,42,36,100,92,63,30.21,30.09,5,1,9,0.01
2013-1-8,60,46,38,49,42,38,100,91,60,30.20,30.09,5,1,7,0.01
2013-1-9,50,43,37,49,42,35,100,96,83,30.12,29.94,12,3,22,0.03
2013-1-10,50,39,33,39,34,32,100,83,56,30.11,29.97,9,4,15,0.03
2013-1-11,50,40,32,39,34,30,100,82,56,30.19,30.06,9,2,16,0.16
2013-1-12,49,39,31,35,30,26,93,73,42,30.18,30.08,8,2,17,0.16
2013-1-13,49,37,27,28,23,14,90,62,32,30.18,30.09,11,2,28,0.00
2013-1-14,49,40,32,26,19,13,73,45,28,30.33,30.14,14,5,36,0.00
2013-1-15,52,38,31,34,28,24,82,67,39,30.39,30.31,5,1,10,0.00
2013-1-16,58,41,31,39,32,29,94,71,40,30.36,30.21,7,1,10,0.00
2013-1-17,63,45,34,41,33,30,91,67,34,30.22,30.11,7,1,12,0.00
2013-1-18,61,46,35,42,33,26,95,66,32,30.19,30.10,9,2,15,0.00
2013-1-19,64,47,37,42,33,29,81,62,35,30.21,30.12,5,1,11,0.00
2013-1-20,62,46,37,41,34,29,90,65,31,30.19,30.10,6,1,11,0.00
2013-1-21,66,46,34,45,34,28,90,65,35,30.15,30.04,7,1,12,0.00
2013-1-22,64,47,37,45,40,33,95,79,49,30.09,29.98,6,1,10,0.00
2013-1-23,53,48,45,51,46,41,100,90,73,30.06,29.91,5,1,14,0.09
2013-1-24,55,51,46,52,50,46,100,97,83,30.16,30.02,10,1,17,0.09
2013-1-25,67,54,49,57,52,49,100,92,66,30.16,30.03,6,1,11,0.03
2013-1-26,60,48,38,51,44,37,100,88,51,30.03,29.96,11,2,17,0.00
2013-1-27,57,44,35,42,37,32,100,80,42,30.11,29.99,8,3,14,0.00
2013-1-28,58,45,35,42,38,34,100,79,48,30.24,30.08,9,4,15,0.00
2013-1-29,60,45,35,44,39,35,100,82,49,30.30,30.21,9,2,21,0.00
2013-1-30,67,55,43,45,41,38,87,61,37,30.31,30.23,10,2,26,0.00
2013-1-31,67,52,38,50,44,37,98,78,52,30.25,30.15,6,1,8,0.00
2013-2-1,68,50,39,50,44,39,100,83,49,30.19,30.10,5,1,9,0.00
2013-2-2,62,50,43,50,46,42,99,88,62,30.25,30.17,5,0,7,0.00
2013-2-3,62,48,41,49,44,40,100,88,56,30.21,30.10,6,1,11,0.00
2013-2-4,66,49,38,50,45,38,100,88,54,30.13,30.02,6,1,9,0.00
2013-2-5,57,47,41,47,44,39,100,91,67,30.10,30.02,9,2,17,0.00
2013-2-6,61,45,35,47,40,35,100,87,50,30.14,30.07,8,2,12,0.01
2013-2-7,58,44,38,47,41,36,100,88,56,30.14,29.94,10,2,17,0.02
2013-2-8,54,43,37,42,38,25,100,84,38,29.95,29.87,15,3,34,0.02
2013-2-9,59,45,34,35,30,25,83,57,36,30.05,29.93,16,3,34,0.01
2013-2-10,60,44,33,39,35,30,92,71,42,30.06,29.98,8,2,18,0.00
2013-2-11,62,47,36,37,32,26,84,59,28,30.19,30.03,8,2,15,0.00
2013-2-12,62,46,36,44,36,31,92,72,43,30.31,30.19,8,1,10,0.00
2013-2-13,67,48,36,45,39,35,96,73,33,30.30,30.17,7,2,12,0.00
2013-2-14,68,54,41,43,40,37,92,61,35,30.21,30.15,15,4,34,0.00
2013-2-15,72,54,43,48,43,38,86,68,40,30.27,30.19,6,1,8,0.00
2013-2-16,70,53,42,50,44,40,96,75,48,30.22,30.02,5,1,8,0.00
2013-2-17,67,50,41,48,43,38,100,79,39,30.03,29.94,6,1,10,0.00
2013-2-18,52,45,38,44,40,37,100,86,67,29.99,29.91,10,4,19,0.00
2013-2-19,46,41,36,44,39,34,100,92,79,29.92,29.69,10,4,19,0.41
2013-2-20,59,44,32,41,36,31,99,79,40,30.01,29.75,11,3,17,0.01
2013-2-21,60,45,34,38,35,32,100,74,38,30.12,29.98,11,3,24,0.00
2013-2-22,65,47,35,45,39,34,98,77,40,30.21,30.11,8,2,15,0.00
2013-2-23,60,48,41,45,39,29,100,74,39,30.21,30.11,10,4,21,0.00
2013-2-24,61,49,40,36,28,22,82,47,24,30.21,30.13,11,4,23,0.00
2013-2-25,65,48,35,46,36,23,94,67,25,30.21,30.12,10,2,17,0.00
2013-2-26,70,52,37,37,30,18,93,51,17,30.19,30.10,10,3,20,0.00
2013-2-27,71,52,39,41,36,31,79,58,25,30.34,30.17,6,1,10,0.00
2013-2-28,72,53,41,52,46,40,97,79,49,30.42,30.34,8,2,13,0.00
2013-3-1,73,56,45,54,46,39,100,72,39,30.42,30.24,9,2,15,0.00
2013-3-2,71,58,48,54,48,40,92,72,48,30.25,30.06,5,1,8,0.00
2013-3-3,67,54,46,52,47,44,97,79,50,30.10,30.02,9,2,19,0.00
2013-3-4,61,48,42,50,45,40,99,88,61,30.12,30.01,5,1,12,0.00
2013-3-5,62,48,39,46,42,38,100,79,45,30.02,29.83,9,3,23,0.02
2013-3-6,56,48,38,46,42,37,97,82,56,30.04,29.82,9,4,21,0.10
2013-3-7,55,46,36,45,39,36,100,80,50,29.95,29.81,8,2,13,0.05
2013-3-8,63,48,38,47,42,37,99,82,48,30.01,29.77,8,2,15,0.05
2013-3-9,67,50,38,47,39,34,100,71,31,30.28,30.01,11,2,21,0.00
2013-3-10,73,53,39,43,38,25,94,63,18,30.30,30.23,8,2,15,0.00
2013-3-11,75,55,41,47,41,36,85,62,30,30.24,30.09,6,1,12,0.00
2013-3-12,78,58,43,52,45,39,90,65,38,30.14,30.07,7,1,12,0.00
2013-3-13,79,61,47,58,50,45,95,71,41,30.14,30.08,7,2,12,0.00
2013-3-14,76,60,50,57,50,42,96,71,39,30.15,30.08,7,2,13,0.00
2013-3-15,76,57,45,55,47,42,91,72,41,30.13,30.03,7,1,12,0.00
2013-3-16,76,55,41,54,46,41,100,77,32,30.09,30.01,9,2,15,0.00
2013-3-17,71,53,41,47,43,39,98,71,34,30.12,30.02,6,2,10,0.00
2013-3-18,68,53,41,49,44,38,95,72,45,30.11,30.01,6,1,12,0.00
2013-3-19,73,55,44,50,45,37,95,72,37,30.12,30.03,12,2,20,0.06
2013-3-20,64,55,50,56,52,48,98,90,64,30.11,30.04,10,3,16,0.07
2013-3-21,69,52,43,50,44,39,99,76,39,30.11,29.98,10,2,16,0.00
2013-3-22,71,55,42,43,27,13,93,42,13,30.08,30.00,11,5,22,0.00
2013-3-23,73,53,39,38,32,26,70,50,21,30.11,30.02,7,2,10,0.00
2013-3-24,75,55,41,49,42,36,87,63,32,30.06,29.95,7,2,12,0.00
2013-3-25,66,50,39,47,43,38,99,79,44,30.00,29.92,7,2,13,0.00
2013-3-26,72,54,45,50,45,43,94,76,44,29.98,29.92,5,2,10,0.00
2013-3-27,68,54,45,54,48,42,95,81,57,30.01,29.93,8,3,15,0.00
2013-3-28,72,59,53,56,52,50,99,80,52,30.09,29.99,9,2,13,0.04
2013-3-29,79,61,49,55,51,47,98,73,39,30.08,30.02,7,2,20,0.01
2013-3-30,73,59,53,55,51,-100,97,79,44,30.06,29.98,8,2,15,0.06
2013-3-31,67,56,49,56,51,48,99,85,54,30.07,29.99,8,2,15,0.11
2013-4-1,70,56,49,57,51,46,99,84,49,30.14,30.04,7,2,13,0.11
2013-4-2,72,56,45,54,49,44,100,80,48,30.16,30.07,7,2,13,0.01
2013-4-3,78,59,45,53,48,44,100,73,35,30.13,29.98,6,2,10,0.00
2013-4-4,63,55,50,57,52,49,99,91,75,30.10,30.00,8,3,14,0.40
2013-4-5,65,56,51,55,51,49,99,85,60,30.17,30.10,8,3,14,0.03
2013-4-6,67,56,50,55,52,49,97,87,64,30.17,30.11,6,2,13,0.01
2013-4-7,67,54,47,55,50,46,100,87,57,30.16,29.83,11,4,21,0.10
2013-4-8,67,54,43,50,37,26,99,59,24,30.00,29.76,15,10,32,0.11
2013-4-9,74,63,53,35,31,26,46,32,17,30.10,30.00,15,9,35,0.00
2013-4-10,88,71,56,52,44,33,80,40,23,30.19,30.06,10,5,25,0.00
2013-4-11,77,59,49,53,49,46,97,73,39,30.07,29.83,8,3,13,0.00
2013-4-12,82,57,42,53,46,41,99,71,24,29.89,29.81,8,2,16,0.00
2013-4-13,72,54,44,53,46,43,98,78,48,29.88,29.81,7,2,12,0.00
2013-4-14,73,53,40,47,43,39,100,73,36,29.89,29.82,11,3,21,0.00
2013-4-15,64,50,44,48,42,36,95,73,40,29.90,29.82,16,6,26,0.00
2013-4-16,67,52,37,39,32,21,94,55,18,30.12,29.90,15,4,27,0.00
2013-4-17,68,58,51,31,27,20,46,31,18,30.24,30.11,14,7,27,0.00
2013-4-18,76,58,42,42,36,30,74,47,20,30.25,30.16,8,2,14,0.00
2013-4-19,85,64,47,49,44,39,76,52,25,30.21,30.05,7,2,13,0.00
2013-4-20,82,63,48,48,44,35,91,55,19,30.08,29.97,10,2,26,0.00
2013-4-21,87,67,49,47,40,30,80,45,14,30.04,29.95,11,3,21,0.00
2013-4-22,88,71,55,47,39,25,67,37,11,29.98,29.86,9,3,19,0.00
2013-4-23,83,69,54,43,30,19,61,27,12,29.96,29.83,15,5,36,0.00
2013-4-24,78,58,44,52,45,39,91,65,30,29.93,29.76,7,2,14,0.00
2013-4-25,71,57,48,54,49,46,96,77,50,30.04,29.90,8,4,13,0.00
2013-4-26,80,65,49,55,50,45,88,60,40,30.22,30.13,6,3,11,0.00
2013-4-27,86,61,44,57,49,44,100,70,32,30.17,30.02,6,2,11,0.00
2013-4-28,90,66,46,55,49,44,96,62,25,30.06,29.85,9,2,13,0.00
2013-4-29,94,73,56,52,47,38,82,45,16,29.93,29.79,9,3,27,0.00
2013-4-30,84,68,51,52,38,12,91,45,11,29.87,29.80,17,3,33,0.00
2013-5-1,82,72,58,39,22,12,40,16,10,30.11,29.84,16,7,37,0.00
2013-5-2,91,73,57,41,30,14,50,25,9,30.18,30.06,10,3,24,0.00
2013-5-3,92,72,54,45,37,32,60,33,13,30.09,29.83,8,2,13,0.00
2013-5-4,91,70,54,49,38,28,82,37,12,29.84,29.56,10,3,28,0.00
2013-5-5,69,58,50,50,48,44,84,68,48,29.80,29.62,10,3,15,0.00
2013-5-6,69,60,52,58,51,47,89,74,51,29.96,29.79,8,2,15,0.09
2013-5-7,72,60,50,53,50,46,96,71,43,30.02,29.92,8,3,14,0.08
2013-5-8,72,57,50,54,50,48,96,80,44,30.13,30.01,9,3,16,0.00
2013-5-9,73,57,50,54,50,47,96,79,50,30.17,30.06,6,3,14,0.00
2013-5-10,80,59,49,58,49,-100,98,78,42,30.17,30.09,6,2,10,0.00
2013-5-11,94,68,50,58,50,-100,96,62,17,30.12,30.01,7,2,11,0.00
2013-5-12,90,68,52,55,50,44,82,56,22,30.13,30.03,9,3,17,0.00
2013-5-13,87,64,48,58,51,46,93,68,34,30.08,29.93,6,2,12,0.00
2013-5-14,75,60,50,54,50,45,96,72,39,30.00,29.91,8,2,15,0.00
2013-5-15,67,56,46,50,48,44,95,76,51,30.05,29.95,9,4,15,0.00
2013-5-16,71,54,49,56,36,-100,98,82,49,30.01,29.93,8,3,17,0.01
2013-5-17,72,56,48,50,44,-100,96,74,43,30.08,29.93,8,3,15,0.01
2013-5-18,78,60,49,54,49,45,93,71,36,30.11,30.02,7,3,15,0.00
2013-5-19,87,65,47,52,45,32,97,57,15,30.11,29.96,10,3,17,0.00
2013-5-20,91,70,54,48,40,29,75,40,12,30.01,29.92,8,3,17,0.00
2013-5-21,75,59,50,52,46,40,91,66,34,29.98,29.86,10,4,20,0.00
2013-5-22,70,54,41,43,36,25,87,56,18,29.97,29.85,11,4,18,0.00
2013-5-23,71,55,43,46,43,40,97,69,41,29.99,29.86,7,2,15,0.00
2013-5-24,74,55,43,48,43,37,98,69,28,29.97,29.91,8,2,15,0.00
2013-5-25,68,54,45,49,46,43,94,76,46,30.02,29.91,9,3,15,0.00
2013-5-26,75,59,49,53,50,47,96,76,43,30.11,29.99,10,5,22,0.00
2013-5-27,64,56,49,55,51,48,96,86,65,30.10,29.96,9,3,17,0.02
2013-5-28,74,61,54,57,54,50,99,81,51,29.99,29.89,8,3,16,0.03
2013-5-29,73,61,51,55,52,48,93,74,49,29.95,29.87,10,3,16,0.00
2013-5-30,81,60,47,52,48,41,98,68,31,30.00,29.88,7,2,14,0.00
2013-5-31,92,68,48,50,45,34,92,53,14,29.99,29.90,9,3,17,0.00
2013-6-1,96,75,54,52,45,35,77,41,12,29.95,29.76,10,3,15,0.00
2013-6-2,85,65,54,55,50,47,83,61,34,29.82,29.70,5,1,9,0.00
2013-6-3,83,64,51,55,51,48,93,66,36,29.85,29.68,9,3,14,0.00
2013-6-4,78,60,51,55,51,48,96,76,44,29.94,29.79,9,3,15,0.00
2013-6-5,78,60,51,54,51,48,96,74,38,29.96,29.87,6,2,11,0.00
2013-6-6,87,64,50,58,52,48,97,71,33,29.91,29.81,6,2,10,0.00
2013-6-7,102,72,51,60,54,49,96,61,20,29.85,29.75,9,2,15,0.00
2013-6-8,106,80,64,58,53,49,69,44,15,29.81,29.67,8,2,15,0.00
2013-6-9,77,64,56,57,54,52,91,72,50,29.87,29.78,11,5,17,0.00
2013-6-10,73,61,53,54,52,50,89,73,51,29.94,29.78,10,5,19,0.00
2013-6-11,80,62,52,55,52,49,95,73,42,29.97,29.87,6,2,10,0.00
2013-6-12,80,62,50,51,48,44,92,64,30,29.96,29.85,7,2,14,0.00
2013-6-13,86,63,46,50,46,38,97,61,19,30.06,29.93,9,3,15,0.00
2013-6-14,87,66,51,50,43,33,85,50,17,29.99,29.65,8,2,15,0.00
2013-6-15,75,59,47,52,46,39,93,66,42,29.96,29.70,7,2,14,0.00
2013-6-16,85,62,46,52,48,39,97,67,21,30.07,29.90,10,2,17,0.00
2013-6-17,77,60,48,56,51,46,96,74,45,30.07,29.98,8,3,15,0.00
2013-6-18,69,59,51,52,49,43,97,73,41,30.03,29.84,11,5,20,0.00
2013-6-19,78,60,46,49,47,44,94,66,33,30.02,29.91,9,3,18,0.00
2013-6-20,79,56,46,51,47,44,97,76,32,29.97,29.86,7,1,15,0.00
2013-6-21,83,80,76,50,47,45,35,31,27,29.94,29.89,6,5,12,0.00
2013-6-22,90,76,50,52,47,38,90,42,18,29.92,29.80,7,3,15,0.00
2013-6-23,67,59,53,59,55,52,99,88,72,29.88,29.75,9,4,17,0.00
2013-6-24,64,60,57,60,58,56,97,92,86,29.91,29.74,4,1,9,0.06
2013-6-25,75,64,59,62,59,56,96,84,62,29.98,29.83,8,2,13,0.04
2013-6-26,85,69,58,61,58,52,93,71,39,30.03,29.82,9,3,14,0.01
2013-6-27,93,63,50,56,53,47,97,74,21,30.06,29.88,7,1,10,0.00
2013-6-28,98,73,59,61,55,43,84,58,21,30.04,29.56,7,1,14,0.00
2013-6-29,101,82,56,52,50,45,66,36,17,29.78,29.39,8,3,13,0.00
2013-10-18,82,67,49,44,42,38,67,44,23,30.00,29.95,6,2,9,0.00
2013-10-19,85,62,50,48,40,-100,78,53,23,30.03,29.97,5,1,10,0.00
2013-10-20,85,63,49,48,44,34,85,57,17,30.00,29.87,6,1,12,0.00
2013-10-21,80,59,47,51,47,43,95,69,32,29.94,29.87,5,1,8,0.00
2013-10-22,81,62,47,55,50,46,99,68,33,29.96,29.88,5,1,9,0.00
2013-10-23,81,58,47,55,50,46,100,79,34,29.92,29.85,6,1,9,0.00
2013-10-24,62,53,47,52,50,46,100,90,67,30.01,29.92,6,2,10,0.00
2013-10-25,75,59,47,54,50,47,100,74,39,30.10,30.04,6,2,10,0.00
2013-10-26,80,58,47,53,45,-100,99,69,32,30.09,29.98,6,2,11,0.00
2013-10-27,61,52,46,54,49,45,100,88,68,29.99,29.61,12,4,24,0.00
2013-10-28,62,50,44,51,45,-100,100,88,57,29.80,29.59,6,2,11,0.00
2013-10-29,63,53,45,50,48,44,99,85,55,29.98,29.80,7,1,12,0.00
2013-10-30,68,51,42,52,46,42,100,83,49,30.09,29.98,7,2,12,0.00
2013-10-31,69,52,43,52,46,43,100,84,48,30.11,30.06,4,1,7,0.00